Regional Weather Roundup
Issued by NWS Goodland, KS

Home | Current Version | Previous Version | Text Only | Print | Product List | Glossary On
Versions: 1 2 3 4 5 6 7 8 9 10 11 12 13 14 15 16 17 18 19 20 21 22 23 24 25 26 27 28 29 30 31 32 33 34 35 36 37 38 39 40 41 42 43 44 45 46 47 48 49 50
000
ASUS43 KGLD 310108
RWRGLD

GOODLAND FORECAST AREA HOURLY WEATHER ROUNDUP
NATIONAL WEATHER SERVICE GOODLAND KS
700 PM MDT THU MAR 30 2017

...OFFICIAL OBSERVATIONS...

CITY           SKY/WX    TMP DP  RH WIND       PRES   REMARKS
GOODLAND KS    CLEAR     53  42  66 E7        29.71R
HILL CITY KS   CLOUDY    46  39  76 NE7       29.78R
IMPERIAL NEB   CLEAR     53  37  54 E7        29.72R
MCCOOK NEB     CLEAR     44  38  79 E10       29.76R
AKRON CO       CLOUDY    56  39  53 E13       29.68R
BURLINGTON CO  CLEAR     53  44  71 E7        29.71R
LIMON CO       CLOUDY    54  33  45 SE14      29.69S
$$

...UNOFFICIAL OBSERVATIONS...

CITY           SKY/WX    TMP DP  RH WIND       PRES   REMARKS
NORTON KS      CLOUDY    43  34  70 NE3       29.77
SHARON SPRINGS   N/A     54  45  72 CALM        N/A
TRENTON NEB      N/A     46  32  58 SE6         N/A
KIT CARSON CO    N/A     56  40  54 MISG        N/A
YUMA CO        FAIR      52  39  62 E9        29.69S
$$



USA.gov is the U.S. government's official web portal to all federal, state and local government web resources and services.